This is the latest recevied weather packets stored in our database for station/object KM7BEO. If no packets are shown the sender has not sent any weather packets the latest 10 day(s).
| Time | Temp. | Humidity | Pressure | Rain* | Wind** | Luminosity | Snow |
|---|---|---|---|---|---|---|---|
| 1777778052 | 16.67° C | 65% | 1012.9 hPa | 0 mm | - | 7 W/m² | - |
| 1777777748 | 17.22° C | 64% | 1013 hPa | 0 mm | - | 9 W/m² | - |
| 1777777445 | 17.22° C | 63% | 1012.9 hPa | 0 mm | - | 11 W/m² | - |
| 1777777141 | 17.22° C | 61% | 1012.9 hPa | 0 mm | - | 14 W/m² | - |
| 1777776839 | 17.22° C | 62% | 1012.9 hPa | 0 mm | - | 16 W/m² | - |
| 1777776536 | 17.78° C | 61% | 1013 hPa | 0 mm | - | 19 W/m² | - |
| 1777776232 | 18.33° C | 60% | 1012.8 hPa | 0 mm | - | 21 W/m² | - |
| 1777775929 | 18.33° C | 58% | 1013 hPa | 0 mm | - | 24 W/m² | - |
| 1777775627 | 18.89° C | 58% | 1012.9 hPa | 0 mm | - | 27 W/m² | - |
| 1777775324 | 18.89° C | 57% | 1012.9 hPa | 0 mm | - | 31 W/m² | - |
| 1777775024 | 18.89° C | 56% | 1013 hPa | 0 mm | - | 37 W/m² | - |
| 1777774720 | 18.89° C | 57% | 1012.8 hPa | 0 mm | - | 31 W/m² | - |
| 1777774416 | 19.44° C | 56% | 1012.8 hPa | 0 mm | - | 33 W/m² | - |
| 1777774114 | 19.44° C | 55% | 1013 hPa | 0 mm | - | 40 W/m² | - |
| 1777773812 | 20° C | 55% | 1013.1 hPa | 0 mm | - | 69 W/m² | - |
| 1777773508 | 20° C | 54% | 1013 hPa | 0 mm | - | 98 W/m² | - |
| 1777773205 | 20° C | 54% | 1013 hPa | 0 mm | - | 120 W/m² | - |
| 1777772901 | 20° C | 54% | 1013.1 hPa | 0 mm | - | 128 W/m² | - |
| 1777772599 | 20.56° C | 54% | 1013 hPa | 0 mm | - | 109 W/m² | - |
| 1777772296 | 20.56° C | 52% | 1013.2 hPa | 0 mm | - | 162 W/m² | - |
| 1777771993 | 21.11° C | 49% | 1013.1 hPa | 0 mm | - | 74 W/m² | - |
| 1777771690 | 21.11° C | 46% | 1013.2 hPa | 0 mm | - | 44 W/m² | - |
| 1777771388 | 21.67° C | 46% | 1013.2 hPa | 0 mm | - | 75 W/m² | - |
| 1777771084 | 22.22° C | 46% | 1013.3 hPa | 0 mm | - | 138 W/m² | - |
| 1777770781 | 22.22° C | 47% | 1013.2 hPa | 0 mm | - | 230 W/m² | - |
* Rain latest hour (hover to see other rain measurements)
** Current wind speed in m/s (hover to see current wind gust speed)